Terminal Aerodrome Forecast
Issued by NWS Louisville, KY

Home | Current Version | Previous Version | Text Only | Print | Product List | Glossary On
Versions: 1 2 3 4 5 6 7 8 9 10 11 12 13 14
000
FTUS43 KLMK 211400 AAB
TAFLEX
TAF AMD
KLEX 211416Z 2114/2212 25010KT P6SM BKN020
     FM211500 24012KT P6SM BKN040
     FM211800 27012G18KT P6SM BKN040
     FM220100 30007KT P6SM SCT250=

USA.gov is the U.S. government's official web portal to all federal, state and local government web resources and services.